Find Kosmos-591

NORAD ID: 6848 Int'l Des: 1973-069 Owner: GUKOSR Country: SU operational
LEOCIRCULAR

实时位置

正在加载3D地球...

关于 Kosmos-591

正在加载描述...

即将过境

Passes for default location (London). Set your location on the main map for personalized predictions.

高度历史

Loading altitude history...

两行轨道根数

1 6848U 73069D 26121.82244924 .00000007 00000-0 13049-3 0 9995
2 6848 73.9981 141.9607 0089578 191.5457 342.0516 12.61752186421650
Epoch: May 1, 2026 • Age: 9 hours

当前状态

高度 1358.8 km
速度 7.21 km/s
星下点 20.77°N, 17.45°E
类型 other

Most Searched